TimeCDT,TemperatureF,Dew PointF,Humidity,Sea Level PressureIn,VisibilityMPH,Wind Direction,Wind SpeedMPH,Gust SpeedMPH,PrecipitationIn,Events,Conditions,WindDirDegrees,DateUTC
12:53 AM,73.9,72.0,93,29.84,8.0,ENE,4.6,-,0.01,,Overcast,70,2012-09-30 05:53:00
1:00 AM,75.2,73.4,94,29.84,9.0,ENE,3.5,-,N/A,,Overcast,60,2012-09-30 06:00:00
1:42 AM,75.2,73.4,94,29.84,10.0,Calm,Calm,-,0.00,,Overcast,0,2012-09-30 06:42:00
1:53 AM,75.0,73.0,94,29.83,9.0,SSE,3.5,-,0.00,,Overcast,160,2012-09-30 06:53:00
2:10 AM,75.2,73.4,94,29.83,10.0,Calm,Calm,-,N/A,,Overcast,0,2012-09-30 07:10:00
2:33 AM,75.2,73.4,94,29.82,10.0,Calm,Calm,-,N/A,,Overcast,0,2012-09-30 07:33:00
2:53 AM,73.9,72.0,93,29.81,8.0,Calm,Calm,-,N/A,,Mostly Cloudy,0,2012-09-30 07:53:00
3:53 AM,73.9,72.0,93,29.80,8.0,Calm,Calm,-,N/A,,Overcast,0,2012-09-30 08:53:00
4:26 AM,73.4,71.6,94,29.79,8.0,Calm,Calm,-,N/A,,Overcast,0,2012-09-30 09:26:00
4:38 AM,73.4,71.6,94,29.78,7.0,NE,4.6,-,N/A,,Overcast,50,2012-09-30 09:38:00
4:53 AM,73.9,73.0,97,29.77,7.0,NE,4.6,-,N/A,,Overcast,50,2012-09-30 09:53:00
5:34 AM,73.4,73.4,100,29.77,8.0,ENE,5.8,-,0.00,,Overcast,60,2012-09-30 10:34:00
5:53 AM,73.9,73.0,97,29.77,8.0,ENE,4.6,-,0.00,,Overcast,60,2012-09-30 10:53:00
6:53 AM,75.0,73.0,94,29.77,10.0,Calm,Calm,-,N/A,,Overcast,0,2012-09-30 11:53:00
7:53 AM,77.0,73.0,88,29.77,10.0,South,5.8,-,N/A,,Mostly Cloudy,170,2012-09-30 12:53:00
8:53 AM,75.2,69.8,83,29.78,3.0,South,12.7,24.2,0.05,Rain,Rain,190,2012-09-30 13:53:00
9:02 AM,73.4,69.8,88,29.78,3.0,South,12.7,24.2,0.05,Rain,Rain,190,2012-09-30 14:02:00
9:53 AM,75.9,72.0,87,29.78,7.0,South,11.5,19.6,0.13,Rain,Light Rain,190,2012-09-30 14:53:00
10:53 AM,78.1,73.0,84,29.76,10.0,South,9.2,-,0.03,,Scattered Clouds,180,2012-09-30 15:53:00
11:53 AM,79.0,71.1,77,29.75,10.0,South,15.0,23.0,N/A,,Mostly Cloudy,180,2012-09-30 16:53:00
12:53 PM,79.0,72.0,79,29.73,10.0,South,6.9,17.3,N/A,,Mostly Cloudy,180,2012-09-30 17:53:00
1:53 PM,79.0,75.0,88,29.69,10.0,SSE,10.4,-,0.00,,Mostly Cloudy,160,2012-09-30 18:53:00
2:53 PM,80.1,75.0,85,29.66,10.0,SSE,11.5,-,0.01,,Overcast,150,2012-09-30 19:53:00
3:53 PM,81.0,75.0,82,29.63,10.0,South,16.1,25.3,N/A,,Overcast,170,2012-09-30 20:53:00
4:00 PM,80.6,75.2,84,29.64,10.0,South,15.0,25.3,N/A,,Overcast,170,2012-09-30 21:00:00
4:53 PM,81.0,75.9,85,29.61,9.0,South,9.2,20.7,0.00,Rain,Light Rain,170,2012-09-30 21:53:00
5:53 PM,80.1,75.0,85,29.61,8.0,South,12.7,21.9,0.01,Rain,Light Rain,170,2012-09-30 22:53:00
6:49 PM,78.8,75.2,89,29.62,1.8,South,10.4,19.6,0.14,Rain,Heavy Rain,170,2012-09-30 23:49:00
6:53 PM,79.0,75.9,90,29.62,1.5,South,12.7,20.7,0.18,Rain,Heavy Rain,170,2012-09-30 23:53:00
7:00 PM,78.8,73.4,83,29.61,3.0,South,11.5,24.2,0.03,Rain,Rain,180,2012-10-01 00:00:00
7:20 PM,77.0,73.4,89,29.61,1.8,South,9.2,21.9,0.17,Rain,Heavy Rain,190,2012-10-01 00:20:00
7:37 PM,78.8,75.2,89,29.61,1.5,South,20.7,28.8,0.39,Rain,Rain,170,2012-10-01 00:37:00
7:45 PM,77.0,73.4,89,29.62,2.5,South,9.2,28.8,0.43,Rain,Rain,180,2012-10-01 00:45:00
7:49 PM,75.2,73.4,94,29.63,1.0,South,19.6,33.4,0.72,Rain,Rain,170,2012-10-01 00:49:00
7:53 PM,73.9,72.0,93,29.62,2.0,South,13.8,33.4,0.86,Rain-Thunderstorm,Heavy Thunderstorms and Rain,170,2012-10-01 00:53:00
8:00 PM,75.2,73.4,94,29.62,1.0,South,11.5,20.7,0.07,Rain-Thunderstorm,Heavy Thunderstorms and Rain,170,2012-10-01 01:00:00
8:02 PM,75.2,73.4,94,29.61,8.0,South,11.5,20.7,0.07,Rain,Light Rain,180,2012-10-01 01:02:00
8:53 PM,78.1,73.9,87,29.60,8.0,South,11.5,-,0.07,Rain,Light Rain,190,2012-10-01 01:53:00
9:38 PM,78.8,75.2,89,29.60,10.0,SSW,12.7,26.5,0.01,,Overcast,200,2012-10-01 02:38:00
9:53 PM,77.0,73.0,88,29.60,10.0,South,12.7,20.7,0.01,,Overcast,190,2012-10-01 02:53:00
10:06 PM,77.0,71.6,83,29.60,10.0,SSW,11.5,23.0,N/A,,Overcast,200,2012-10-01 03:06:00
10:24 PM,78.8,73.4,83,29.60,10.0,South,11.5,20.7,N/A,,Overcast,190,2012-10-01 03:24:00
10:53 PM,78.8,73.4,83,29.59,10.0,South,10.4,-,N/A,,Mostly Cloudy,180,2012-10-01 03:53:00
11:53 PM,78.1,73.9,87,29.57,10.0,SSW,9.2,-,N/A,,Clear,200,2012-10-01 04:53:00